Regional Weather Roundup
Issued by NWS

Home | Current Version | Previous Version | Text Only | Print | Product List | Glossary On
Versions: 1 2 3 4 5 6 7 8 9 10 11 12 13 14 15 16 17 18 19 20 21 22 23 24 25 26 27 28 29 30 31 32 33 34 35 36 37 38 39 40 41 42 43 44 45 46 47 48 49 50
000
ASUS43 KBIS 240502
RWRND

NORTH DAKOTA REGIONAL WEATHER ROUNDUP
NATIONAL WEATHER SERVICE BISMARCK ND
1200 AM CDT SUN SEP 24 2017

NOTE: "FAIR" INDICATES FEW OR NO CLOUDS BELOW 12,000 FEET WITH NO
SIGNIFICANT WEATHER AND/OR OBSTRUCTIONS TO VISIBILITY.


NDZ001>003-009>011-017-240600-
NORTHWEST NORTH DAKOTA

CITY           SKY/WX    TMP DP  RH WIND       PRES   REMARKS
WILLISTON      LGT RAIN  46  43  89 N3        30.13R
MINOT          LGT RAIN  48  46  93 NW8       30.09R
MINOT AFB      LGT RAIN  47  45  93 N6        30.08S
$$

NDZ018>021-031>035-040>046-240600-
SOUTHWEST NORTH DAKOTA

CITY           SKY/WX    TMP DP  RH WIND       PRES   REMARKS
BISMARCK       LGT RAIN  49  48  97 N10       30.05F FOG
DICKINSON      LGT RAIN  45  44  97 NE8       30.08S
GARRISON         N/A     46  46 100 N6        30.08R
HETTINGER ARPT CLOUDY    45  42  89 N10       30.06F
$$

NDZ004>008-012>016-024-026-027-054-240600-
NORTHEAST NORTH DAKOTA

CITY           SKY/WX    TMP DP  RH WIND       PRES   REMARKS
GRAND FORKS    LGT RAIN  54  53  97 N10       30.01R
GRND FRKS AFB  LGT RAIN  52  52  98 NE10      30.01F
DEVILS LAKE    RAIN      49  47  93 N8        30.06R
$$

NDZ022-023-025-028>030-036>039-047>053-240600-
SOUTHEAST NORTH DAKOTA

CITY           SKY/WX    TMP DP  RH WIND       PRES   REMARKS
FARGO          RAIN      56  55  97 N8        29.98R FOG
JAMESTOWN      LGT RAIN  51  50  96 NE8       29.99F FOG
$$





USA.gov is the U.S. government's official web portal to all federal, state and local government web resources and services.